sat.trackr.live / text

‹ back to catalog

STARLINK-35776

NORAD 66282 · 2025-247T

PAYLOAD ACTIVE UNKNOWN

§ Identity

Operator
Country
US
Launch date
2025-10-31
Launch site
AFWTR
Launch vehicle
Mass (kg)
RCS (m²)

Purposes: comms

External: N2YO · Heavens-Above · Gunter

§ Orbital elements

Epoch: 2026-09-20T13:31:18.191136Z

Period
93.85 min
Inclination
53.1599°
Eccentricity
0.0001028
Mean motion
15.34394973 rev/d
Perigee alt
462.0 km
Apogee alt
463.4 km
Semi-major
6,840.9 km
B*
6.3617e-4
RAAN
3.1569°
Arg perigee
60.2599°
Mean anomaly
299.8506°
Rev number
5,091

§ Raw data

STARLINK-357761 66282U 25247T   26263.56340499  .00021175  00000+0  63617-3 0  99942 66282  53.1599   3.1569 0001028  60.2599 299.8506 15.34394973 50916

JSON: /api/v1/satellites/66282 · /tle

For live sub-satellite position, see the globe view (requires WebGL).

§ Visibility from observer

Set your observer location to see the next 7 days of passes ≥ 10°. The values pass through the URL so the page stays shareable.

No JS? Fill the form by hand. The geolocation button needs JavaScript.